TAM3974 SBGR-SBRJ

Flight info

Callsign TAM3974
Flight time N/A
Altitude 19000
Route NIBRU UZ171 KEVUN
Aircraft A320/M-SDE3FGHIRWY/LB1

Departure

Time N/A
Airport São Paulo/Guarulhos–Governor André Franco Montoro International Airport (SBGR)

Arrival

Time 2026-05-05 13:38
Airport Santos Dumont Airport (SBRJ)
Time Latitude Longitude Altitude Speed Heading
2026-05-05 13:12 -23.50920 -45.10479 19266 ft 435 kts 73°
2026-05-05 13:12 -23.50427 -45.08951 19192 ft 436 kts 70°
2026-05-05 13:13 -23.49841 -45.07354 19202 ft 436 kts 68°
2026-05-05 13:13 -23.48680 -45.04298 19228 ft 437 kts 69°
2026-05-05 13:13 -23.48675 -45.04283 19230 ft 437 kts 69°
2026-05-05 13:13 -23.47787 -45.01720 19226 ft 437 kts 71°
2026-05-05 13:14 -23.46852 -44.98516 19225 ft 436 kts 75°
2026-05-05 13:14 -23.46092 -44.95321 19223 ft 436 kts 78°
2026-05-05 13:14 -23.45436 -44.92117 19223 ft 436 kts 79°
2026-05-05 13:14 -23.45129 -44.90537 19222 ft 436 kts 79°
2026-05-05 13:15 -23.44917 -44.89443 19218 ft 436 kts 79°
2026-05-05 13:15 -23.44669 -44.88171 19220 ft 436 kts 79°
2026-05-05 13:16 -23.44377 -44.86694 19222 ft 436 kts 79°
2026-05-05 13:16 -23.43718 -44.83472 19222 ft 436 kts 78°
2026-05-05 13:16 -23.43029 -44.80262 19218 ft 436 kts 77°
2026-05-05 13:16 -23.42316 -44.77054 19217 ft 436 kts 77°
2026-05-05 13:17 -23.41595 -44.73874 19218 ft 436 kts 77°
2026-05-05 13:17 -23.40867 -44.70673 19220 ft 436 kts 77°
2026-05-05 13:17 -23.40142 -44.67474 19218 ft 436 kts 77°
2026-05-05 13:17 -23.39419 -44.64272 19219 ft 435 kts 77°
2026-05-05 13:18 -23.38694 -44.61062 19217 ft 436 kts 77°
2026-05-05 13:18 -23.37975 -44.57867 19215 ft 436 kts 77°
2026-05-05 13:18 -23.37257 -44.54654 19216 ft 436 kts 77°
2026-05-05 13:18 -23.36546 -44.51462 19211 ft 435 kts 77°
2026-05-05 13:19 -23.35841 -44.48301 18806 ft 424 kts 77°
2026-05-05 13:19 -23.35154 -44.45227 18182 ft 413 kts 77°
2026-05-05 13:19 -23.34406 -44.42235 17508 ft 404 kts 71°
2026-05-05 13:19 -23.33304 -44.39465 16863 ft 395 kts 65°
2026-05-05 13:20 -23.32150 -44.36795 16236 ft 386 kts 65°
2026-05-05 13:20 -23.31012 -44.34161 15599 ft 381 kts 65°
2026-05-05 13:20 -23.29890 -44.31560 14990 ft 377 kts 66°
2026-05-05 13:20 -23.28793 -44.29011 14388 ft 373 kts 66°
2026-05-05 13:21 -23.27691 -44.26447 13770 ft 369 kts 66°
2026-05-05 13:21 -23.26610 -44.23934 13091 ft 365 kts 66°
2026-05-05 13:21 -23.25537 -44.21437 12446 ft 362 kts 66°
2026-05-05 13:21 -23.24482 -44.18973 11818 ft 359 kts 66°
2026-05-05 13:22 -23.23429 -44.16521 11181 ft 356 kts 66°
2026-05-05 13:22 -23.22382 -44.14091 10570 ft 357 kts 66°
2026-05-05 13:22 -23.21326 -44.11644 9948 ft 357 kts 66°
2026-05-05 13:22 -23.20271 -44.09206 9378 ft 354 kts 66°
2026-05-05 13:23 -23.19234 -44.06834 9179 ft 340 kts 65°
2026-05-05 13:23 -23.18207 -44.04574 9049 ft 327 kts 65°
2026-05-05 13:23 -23.17202 -44.02411 8944 ft 314 kts 64°
2026-05-05 13:23 -23.16236 -44.00342 8844 ft 302 kts 65°
2026-05-05 13:24 -23.15310 -43.98327 8762 ft 294 kts 66°
2026-05-05 13:24 -23.14429 -43.96323 8655 ft 293 kts 66°
2026-05-05 13:24 -23.13580 -43.94351 8556 ft 292 kts 66°
2026-05-05 13:24 -23.12721 -43.92344 8459 ft 292 kts 67°
2026-05-05 13:25 -23.11867 -43.90338 8361 ft 292 kts 67°
2026-05-05 13:25 -23.11017 -43.88338 8263 ft 291 kts 67°
2026-05-05 13:25 -23.10163 -43.86335 8166 ft 291 kts 66°
2026-05-05 13:25 -23.09310 -43.84348 8068 ft 290 kts 66°
2026-05-05 13:26 -23.08455 -43.82355 7960 ft 290 kts 66°
2026-05-05 13:26 -23.07620 -43.80392 7872 ft 289 kts 67°
2026-05-05 13:26 -23.06775 -43.78408 7776 ft 289 kts 66°
2026-05-05 13:26 -23.05926 -43.76433 7636 ft 288 kts 66°
2026-05-05 13:27 -23.05076 -43.74461 7497 ft 287 kts 66°
2026-05-05 13:27 -23.04228 -43.72500 7369 ft 287 kts 66°
2026-05-05 13:27 -23.03382 -43.70543 7247 ft 286 kts 66°
2026-05-05 13:27 -23.02538 -43.68590 7132 ft 286 kts 66°
2026-05-05 13:28 -23.01694 -43.66630 7015 ft 286 kts 66°
2026-05-05 13:28 -23.00865 -43.64702 6885 ft 285 kts 66°
2026-05-05 13:28 -23.00016 -43.62729 6720 ft 284 kts 66°
2026-05-05 13:28 -22.99177 -43.60790 6552 ft 283 kts 66°
2026-05-05 13:29 -22.98346 -43.58888 6380 ft 283 kts 66°
2026-05-05 13:29 -22.97498 -43.56960 6199 ft 282 kts 66°
2026-05-05 13:29 -22.96650 -43.55042 6062 ft 282 kts 66°
2026-05-05 13:29 -22.95806 -43.53132 6000 ft 281 kts 66°
2026-05-05 13:30 -22.94957 -43.51212 6013 ft 282 kts 66°
2026-05-05 13:30 -22.94123 -43.49290 6004 ft 280 kts 66°
2026-05-05 13:30 -22.93314 -43.47381 6010 ft 281 kts 67°
2026-05-05 13:30 -22.92503 -43.45455 6005 ft 278 kts 67°
2026-05-05 13:31 -22.91723 -43.43605 6009 ft 262 kts 66°
2026-05-05 13:31 -22.90983 -43.41856 6010 ft 249 kts 67°
2026-05-05 13:31 -22.90284 -43.40211 6002 ft 234 kts 67°
2026-05-05 13:31 -22.89603 -43.38609 5580 ft 238 kts 66°
2026-05-05 13:32 -22.88905 -43.36960 5000 ft 243 kts 66°
2026-05-05 13:32 -22.88221 -43.35271 4398 ft 245 kts 72°
2026-05-05 13:32 -22.87759 -43.33480 3813 ft 248 kts 74°
2026-05-05 13:32 -22.87300 -43.31666 3229 ft 250 kts 73°
2026-05-05 13:33 -22.86845 -43.29836 2685 ft 252 kts 77°
2026-05-05 13:33 -22.86753 -43.27998 2515 ft 236 kts 89°
2026-05-05 13:33 -22.86767 -43.26288 2467 ft 217 kts 88°
2026-05-05 13:33 -22.86775 -43.24678 2154 ft 211 kts 88°
2026-05-05 13:34 -22.86781 -43.23135 1762 ft 206 kts 89°
2026-05-05 13:34 -22.86874 -43.21646 1690 ft 185 kts 99°
2026-05-05 13:34 -22.87211 -43.20381 1690 ft 168 kts 111°
2026-05-05 13:34 -22.87699 -43.19251 1638 ft 167 kts 110°
2026-05-05 13:35 -22.88029 -43.18045 1281 ft 161 kts 101°
2026-05-05 13:35 -22.88336 -43.16936 999 ft 149 kts 103°
2026-05-05 13:35 -22.88281 -43.15868 929 ft 141 kts 65°
2026-05-05 13:35 -22.87641 -43.15106 917 ft 139 kts 26°
2026-05-05 13:36 -22.86704 -43.14940 833 ft 140 kts 349°
2026-05-05 13:36 -22.85914 -43.15474 681 ft 135 kts 307°
2026-05-05 13:36 -22.85659 -43.16096 692 ft 138 kts 280°
2026-05-05 13:36 -22.85839 -43.17103 688 ft 141 kts 235°
2026-05-05 13:37 -22.86663 -43.17495 691 ft 141 kts 168°
2026-05-05 13:37 -22.87470 -43.16900 695 ft 140 kts 133°
2026-05-05 13:37 -22.88488 -43.16036 359 ft 141 kts 178°
2026-05-05 13:37 -22.89115 -43.16147 322 ft 138 kts 196°
2026-05-05 13:38 -22.90083 -43.16314 194 ft 144 kts 182°
2026-05-05 13:38 -22.91041 -43.16283 20 ft 111 kts 176°
2026-05-05 13:38 -22.91403 -43.16260 16 ft 30 kts 178°
2026-05-05 13:38 -22.91513 -43.16288 15 ft 10 kts 237°
2026-05-05 13:39 -22.91526 -43.16370 13 ft 12 kts 288°